Theta_e
308 307 308 309 309 309 309 307 308 311 313 314 316 317 319 321 319 317 319 322 325 329 331 328 327 328 330 332 333 335 335 336 335 335 335 336 336 336 337 337 336 334 326 318 318 318 317 316 316 319 323 323 324 325 325 324 321 323 328 330 330 331 330 331 330 325 326 325 319 319 321 322 322 322 322 323 323 323 322 322 323 325 328 328 328 331 328 330
308 307 308 309 309 309 308 307 307 310 313 313 316 317 318 321 320 317 318 320 323 327 331 329 328 328 329 331 332 333 334 334 334 334 335 335 336 337 337 337 335 333 327 319 318 319 318 316 316 319 323 323 323 324 325 324 321 323 328 329 329 331 328 324 322 319 320 320 319 320 321 322 322 321 321 323 323 324 326 327 327 327 327 325 325 329 327 328
308 307 307 309 309 309 308 307 307 309 312 313 315 317 317 319 321 318 317 319 322 325 330 330 329 329 328 330 330 331 333 334 333 333 334 334 336 337 337 337 334 331 327 322 319 319 318 317 318 320 322 322 323 324 324 324 323 322 324 327 329 328 325 321 317 317 318 319 319 319 320 321 321 321 321 321 321 323 327 329 329 328 325 325 326 327 326 328
307 307 307 308 309 309 309 307 307 308 310 312 314 316 317 318 320 319 317 318 321 324 328 330 330 330 329 329 330 331 332 332 331 332 332 333 335 336 337 338 334 328 325 322 319 318 318 317 319 321 322 322 323 323 324 324 325 323 322 327 328 323 324 322 317 317 318 319 319 319 320 320 320 321 320 320 322 322 323 323 325 324 322 324 328 328 327 328
306 308 308 308 309 309 309 308 307 307 309 311 313 316 317 317 319 319 317 318 319 322 327 329 330 331 330 329 330 330 331 331 330 329 329 332 334 336 337 338 335 327 322 321 318 318 317 317 320 322 322 323 324 324 324 324 325 323 322 324 323 320 322 320 317 318 318 318 319 318 319 320 320 320 319 320 324 323 321 321 320 320 320 321 325 327 327 328
305 307 308 308 308 308 309 309 308 307 309 311 312 315 316 317 318 318 317 317 319 321 325 329 331 331 331 330 330 329 330 330 329 325 326 331 332 334 336 337 335 326 321 320 317 317 317 317 321 323 323 324 325 326 325 324 324 326 325 322 321 321 320 319 318 318 318 317 317 317 318 319 319 320 319 319 322 322 320 321 321 320 321 320 322 325 326 327
304 306 307 307 308 308 309 310 309 307 308 310 311 314 316 316 317 318 317 317 318 319 323 327 330 331 331 331 330 329 329 328 326 323 323 328 331 331 332 336 335 326 320 319 317 318 317 317 320 322 324 326 325 325 326 324 323 326 328 323 322 322 321 320 319 319 319 317 317 317 317 317 317 319 318 318 319 320 320 319 319 321 322 323 323 323 323 322
304 305 307 307 308 308 308 310 310 308 307 309 311 313 315 315 316 317 317 316 317 319 321 324 327 330 331 332 329 326 327 327 325 323 322 325 329 330 329 333 334 324 318 319 318 317 318 319 320 322 325 326 325 326 326 324 322 324 327 325 323 323 322 322 320 319 319 318 317 317 316 317 317 317 316 318 319 319 319 319 319 320 322 324 324 323 322 321
304 305 306 307 307 308 308 309 310 310 307 307 310 313 314 315 315 317 316 315 317 318 320 323 325 328 330 332 329 324 326 327 324 323 323 324 326 328 328 332 333 324 317 319 318 317 319 319 320 322 325 325 325 327 326 325 326 324 324 325 323 323 323 322 319 318 320 318 318 317 316 317 317 316 317 318 319 318 318 318 318 319 322 324 324 323 322 321
305 305 306 307 307 307 308 309 310 310 308 306 309 312 313 314 315 316 316 315 316 318 320 322 324 328 331 332 328 325 327 327 324 323 323 323 324 325 326 330 333 326 318 317 317 317 319 320 321 322 324 326 327 328 327 327 329 325 323 324 324 324 322 321 318 318 319 318 318 318 318 318 316 316 319 321 321 319 317 318 318 319 321 322 323 324 323 322
305 306 306 307 307 307 308 309 309 310 309 306 309 312 313 314 314 315 316 314 315 317 319 321 324 329 332 331 327 325 328 327 325 324 323 324 323 323 326 329 333 330 322 317 317 317 319 320 321 322 325 328 329 329 328 328 328 326 324 324 324 323 319 316 317 317 317 317 317 317 317 317 316 316 318 322 322 320 318 317 318 319 320 321 322 323 323 322
305 306 307 307 307 307 308 309 309 310 309 306 308 312 313 313 314 314 315 314 314 316 319 321 324 330 332 330 328 327 328 328 326 325 324 324 323 322 325 327 331 333 329 320 316 317 319 321 321 323 326 328 330 330 330 330 329 325 324 326 324 321 319 315 314 316 316 317 317 316 319 319 317 316 317 321 321 320 318 317 318 319 320 320 321 322 323 322
305 306 307 307 307 307 308 309 310 310 310 307 308 312 313 314 313 313 315 314 313 315 319 322 325 330 330 328 329 328 328 328 327 326 326 325 324 323 325 329 331 334 335 326 318 317 318 321 321 323 327 327 330 330 329 329 328 327 323 325 326 321 322 319 314 316 316 317 317 318 324 326 322 319 317 320 320 319 318 317 318 318 319 320 321 322 322 322
305 306 307 307 307 308 308 309 310 311 311 309 308 311 313 314 314 313 314 314 313 315 318 322 325 328 327 326 328 328 328 328 327 326 326 326 325 327 329 332 333 333 335 327 318 318 319 322 324 324 327 328 327 328 332 329 327 329 323 323 328 325 329 326 314 315 317 316 317 321 325 327 326 323 321 321 319 318 318 317 317 318 319 320 321 322 322 322
305 306 307 307 307 308 308 309 310 311 311 310 308 311 313 314 314 312 313 314 314 316 318 321 323 326 325 324 326 327 328 328 327 327 327 326 326 329 331 332 332 332 333 327 320 322 323 324 326 326 327 326 326 330 336 333 329 329 327 328 330 327 333 333 317 313 318 317 315 321 324 325 326 323 323 323 319 316 317 317 317 317 318 319 320 321 321 322
305 306 306 306 307 308 309 309 310 310 311 310 308 310 312 314 314 312 313 315 317 318 319 321 323 326 326 324 325 326 328 328 328 327 326 326 325 328 330 329 329 326 325 323 320 323 326 326 327 327 327 328 332 335 336 334 331 329 329 332 330 327 331 335 323 314 316 318 316 319 323 326 327 321 321 322 320 317 316 317 318 317 318 318 319 320 320 321
306 306 306 306 307 308 309 309 310 310 311 311 309 309 311 314 315 314 316 316 318 319 320 323 324 326 326 325 324 324 327 327 327 327 326 325 325 327 327 324 323 322 321 322 321 323 326 327 327 328 328 330 333 335 335 335 333 330 330 332 331 329 329 332 331 320 314 318 318 318 320 323 325 321 320 321 320 319 316 316 317 317 318 318 318 319 319 320
306 307 306 307 307 308 309 309 310 310 311 312 310 310 311 314 314 315 318 317 318 319 321 322 323 326 326 323 323 324 326 327 326 327 326 325 325 326 326 322 322 323 322 323 323 324 325 324 326 330 330 330 331 333 336 336 333 330 329 332 332 332 330 330 333 324 316 318 320 319 319 318 320 318 319 321 319 318 317 317 317 317 318 318 317 318 318 319
306 307 307 307 308 309 309 309 310 310 311 312 311 312 313 315 315 316 318 319 319 321 323 323 323 326 326 322 323 324 324 326 325 326 325 324 324 325 324 323 322 323 323 324 324 324 325 324 326 331 331 330 330 331 333 332 331 330 329 330 332 333 332 328 330 324 316 318 319 319 319 317 318 317 316 319 319 317 317 317 316 316 317 317 317 317 318 318
305 306 307 308 308 309 309 309 310 310 311 313 314 315 315 315 316 315 316 318 319 320 321 322 323 324 323 322 323 323 324 325 323 323 323 323 323 322 322 321 322 322 322 323 324 323 324 326 327 329 330 329 329 329 330 329 329 330 329 330 331 333 332 329 330 325 317 319 321 318 319 319 318 319 317 316 318 318 317 315 314 316 316 317 317 318 318 318
306 307 307 308 309 309 309 309 310 311 312 313 315 316 315 314 315 315 315 316 316 317 319 320 322 323 321 322 323 323 324 324 322 321 321 321 322 322 322 321 321 322 321 321 323 323 323 326 326 326 327 328 328 328 329 330 329 329 329 330 331 332 332 330 329 326 319 319 323 320 320 320 319 319 318 316 317 318 317 316 315 315 316 317 318 318 318 319
306 307 308 308 309 309 309 309 310 311 312 313 315 316 315 314 314 314 315 316 315 316 317 317 319 321 322 323 323 323 324 324 323 320 320 321 322 322 322 321 322 322 322 322 323 324 324 325 324 323 325 326 327 328 328 329 328 330 330 330 332 331 331 330 324 323 321 321 326 325 322 321 320 320 318 317 318 319 319 319 319 318 317 317 318 318 318 319
307 307 308 309 309 309 309 310 311 312 312 313 315 315 314 313 313 313 314 315 315 315 315 316 317 319 321 322 323 323 324 324 323 321 320 321 322 322 322 321 322 322 322 322 324 325 325 325 323 322 324 326 327 327 327 329 330 332 332 331 332 331 332 334 327 320 320 321 324 325 323 322 320 321 320 318 318 320 321 322 322 321 320 319 320 321 321 320
307 307 308 309 309 309 310 310 311 312 313 313 314 314 313 313 313 314 314 314 315 315 314 315 315 317 319 321 323 324 324 324 323 322 321 321 321 322 321 320 321 322 322 323 323 325 325 323 321 321 324 325 326 326 327 330 331 331 332 331 332 332 332 334 327 319 319 320 320 321 325 326 323 322 321 319 318 318 319 320 321 321 322 322 322 321 322 322
307 307 308 309 309 310 310 311 311 312 313 313 313 313 312 313 313 313 313 313 315 314 313 314 315 315 316 319 322 324 324 324 323 322 321 321 322 322 321 321 322 322 322 323 323 324 323 322 322 323 324 325 326 327 326 328 331 331 331 330 330 331 330 329 323 319 322 325 323 321 329 335 332 328 324 321 321 319 318 317 317 320 321 321 321 321 322 322
307 308 308 309 309 310 310 311 311 312 314 313 312 312 312 312 313 313 313 314 314 313 313 314 315 315 315 317 319 322 325 325 323 323 322 322 322 322 322 321 322 322 322 322 323 324 323 322 323 323 325 325 326 327 326 327 329 331 331 329 329 329 326 325 322 322 327 329 324 320 328 336 333 330 329 328 326 323 321 317 316 318 319 319 320 321 322 322
307 307 308 309 310 310 311 311 311 313 314 312 312 312 312 312 312 312 313 314 314 314 314 314 314 315 316 316 317 320 326 326 323 323 322 322 322 322 323 322 322 322 321 322 325 325 323 322 324 324 325 326 326 326 326 326 328 331 332 331 330 328 325 323 322 325 329 327 324 320 324 330 328 328 330 330 328 327 325 322 319 317 318 320 320 321 322 322
307 307 308 309 309 310 310 311 311 313 313 312 312 312 312 312 311 312 313 314 315 315 315 314 315 316 316 316 316 318 324 325 324 324 322 322 322 322 323 322 321 322 320 322 326 325 322 323 324 324 325 325 326 327 325 326 328 330 333 332 329 329 328 325 322 325 328 327 328 324 321 327 330 329 327 324 326 327 325 325 321 318 319 321 321 322 323 323
307 307 308 309 309 309 310 311 311 312 311 311 312 311 312 311 311 312 313 314 316 315 314 316 316 316 316 317 317 317 321 324 325 324 322 322 322 322 324 323 321 322 321 322 326 325 322 323 324 324 326 325 326 327 325 327 327 325 328 329 328 329 328 327 327 329 330 329 331 326 322 327 332 331 327 324 325 325 323 324 322 318 320 322 322 323 324 324
306 307 309 309 309 309 310 312 311 311 311 311 311 311 311 311 311 314 314 315 317 316 315 316 316 317 319 319 318 317 319 323 324 323 321 322 322 321 322 322 321 322 322 323 326 324 321 322 323 324 325 324 326 326 324 326 324 321 325 326 327 328 328 330 330 329 330 330 330 328 323 326 331 330 328 325 326 326 324 323 322 319 319 321 322 323 323 324
306 307 308 309 310 310 310 312 311 310 311 311 312 311 311 311 311 314 314 314 317 319 317 317 317 319 320 319 320 319 319 322 323 322 322 322 322 321 322 323 323 323 324 324 325 324 322 323 323 324 324 324 326 325 323 323 321 323 326 324 325 327 326 329 328 327 331 331 328 325 322 324 329 331 328 325 326 327 324 324 325 321 318 319 321 322 322 322
306 307 308 309 309 309 310 312 312 311 311 312 312 311 311 312 312 314 314 313 316 318 318 318 319 321 320 319 321 320 320 322 322 322 322 322 322 322 324 325 325 325 325 324 324 324 324 324 323 323 323 324 327 327 324 322 322 324 325 325 328 327 326 329 327 327 331 328 321 321 322 324 326 327 326 324 323 323 320 319 321 320 318 319 321 321 322 322
307 308 309 309 309 310 310 311 312 312 312 312 312 311 311 312 313 314 313 313 314 316 318 319 320 321 320 321 322 321 321 323 323 322 322 323 323 323 325 324 324 327 327 324 324 325 325 325 323 324 324 323 326 326 325 324 323 323 323 326 330 328 329 333 328 327 331 327 320 320 323 325 324 326 326 323 321 321 318 316 317 318 318 320 321 321 321 322
308 310 311 310 309 310 310 311 312 312 311 312 311 311 311 313 313 313 313 314 314 315 317 319 320 321 321 321 322 322 323 323 323 323 322 323 323 324 325 324 323 325 325 324 324 325 327 327 325 324 325 324 325 326 325 325 324 323 323 328 331 329 332 334 329 329 329 324 319 319 324 329 329 330 326 318 316 317 316 317 317 317 319 320 320 319 320 321
309 310 310 309 308 309 310 310 310 311 311 311 311 311 312 314 315 313 313 314 315 315 316 318 321 322 321 322 322 322 324 324 323 323 323 323 323 324 325 324 323 323 324 324 324 324 327 328 325 323 323 323 325 324 322 324 325 324 324 330 331 328 329 330 326 325 325 324 321 319 324 327 326 325 319 314 314 313 312 314 314 315 317 318 319 318 318 320
308 308 307 306 306 307 308 309 309 310 311 310 310 312 313 314 314 313 313 314 315 316 317 318 321 322 322 322 322 322 323 324 323 323 323 323 323 323 324 324 323 322 323 323 324 325 326 327 324 322 322 323 324 322 320 324 326 323 324 328 326 323 327 328 321 318 320 324 323 320 322 325 323 320 318 317 320 318 315 314 311 312 316 317 317 317 318 319
307 307 306 304 304 305 306 307 307 309 309 308 310 311 311 311 310 310 312 314 314 315 318 321 320 320 322 322 322 323 323 322 323 324 323 323 323 323 323 323 322 322 322 322 323 324 325 325 323 322 324 323 322 321 320 320 322 323 325 325 321 322 329 331 326 322 321 323 323 321 321 324 325 323 321 320 320 319 319 319 312 310 313 314 316 317 317 318
306 305 304 304 305 305 306 306 306 307 307 307 310 309 308 309 307 306 308 310 311 312 317 321 318 316 321 322 322 323 323 323 323 323 323 322 322 323 323 323 322 321 321 321 323 323 324 325 321 322 323 321 319 321 323 319 317 320 323 322 324 327 328 329 329 328 324 324 326 323 319 321 322 322 322 322 322 321 318 319 319 315 311 312 316 318 317 317
304 304 304 304 305 306 307 307 308 308 306 307 311 309 307 307 305 304 304 307 311 312 315 318 316 314 317 321 323 324 322 323 323 323 322 322 323 323 323 323 322 321 321 321 323 322 322 325 323 320 320 321 321 322 324 322 318 318 320 320 325 328 326 326 327 326 325 325 326 326 323 323 322 319 321 321 323 324 320 319 321 316 311 313 317 318 319 318
304 304 304 304 305 306 308 308 308 307 306 308 310 308 306 306 304 303 304 306 310 313 315 316 315 314 314 317 320 322 323 323 322 322 321 321 323 324 322 322 322 321 321 320 322 322 321 323 324 319 318 322 324 322 323 323 320 320 322 322 323 323 323 326 326 326 327 325 328 328 324 326 326 320 319 319 319 321 321 321 321 314 311 316 317 317 319 319
303 305 306 305 306 307 307 307 306 306 307 308 307 306 305 306 305 304 303 305 308 311 312 314 315 314 314 315 316 318 321 323 321 321 321 322 324 324 323 321 321 321 321 321 321 321 321 323 322 319 319 323 324 322 321 322 320 321 322 322 323 321 323 327 326 325 325 323 328 328 321 325 329 319 315 318 318 318 317 319 319 314 313 317 318 317 317 317
304 305 306 306 306 306 306 306 305 305 307 307 306 305 305 305 305 305 304 306 308 309 310 312 312 312 313 314 313 313 317 322 322 321 321 322 323 325 323 320 321 321 321 322 320 319 322 324 321 319 320 321 320 319 321 322 320 321 323 323 323 321 322 325 325 324 323 321 325 325 320 324 328 321 317 318 317 315 313 314 315 314 314 317 318 317 317 316
304 304 305 305 305 306 306 306 305 306 306 306 305 305 304 304 305 305 306 306 307 309 312 313 313 312 310 310 311 311 314 319 321 321 322 323 322 323 322 320 321 321 321 322 320 318 322 323 320 319 319 317 317 317 320 321 320 321 323 323 322 320 321 324 324 323 323 322 321 322 321 323 327 328 320 311 309 311 312 313 314 314 314 316 317 318 317 316
304 304 304 304 305 305 305 305 306 306 305 305 305 304 304 304 304 305 306 305 305 307 311 312 312 312 310 308 309 311 312 315 319 319 320 322 322 321 320 320 321 321 320 321 320 319 321 321 319 321 321 319 320 320 320 320 320 321 321 321 321 320 321 324 324 321 322 322 321 322 322 320 323 326 317 309 311 313 311 312 314 314 314 315 316 317 316 316
304 304 304 304 304 304 303 304 305 306 305 305 305 305 304 303 303 304 305 304 303 304 308 310 310 310 309 308 309 309 308 312 316 315 315 318 321 321 320 320 320 320 320 320 318 318 321 321 319 322 323 322 323 324 323 321 320 321 321 320 321 321 320 322 322 320 321 322 321 321 322 318 317 318 315 315 318 316 311 311 312 313 314 316 316 316 316 316
303 304 304 303 303 303 303 303 304 305 305 305 305 305 305 305 303 303 303 304 303 303 306 308 308 309 310 309 310 310 308 309 311 312 313 315 320 320 319 320 321 320 320 319 316 318 323 321 319 321 323 322 324 324 323 321 321 322 322 320 320 321 320 320 321 321 320 321 320 321 320 319 318 318 319 320 321 319 315 311 310 313 315 315 316 316 316 316
304 304 304 303 303 303 302 302 304 305 305 306 306 306 306 305 304 303 304 304 304 303 305 306 307 309 311 311 312 312 310 309 310 312 312 313 316 316 316 319 321 320 319 318 316 319 323 321 319 320 320 320 322 322 321 321 321 322 322 321 320 320 320 321 321 321 320 320 320 320 319 320 320 321 325 326 323 323 320 312 310 313 315 314 315 315 315 315
303 303 303 303 303 303 302 302 304 305 305 306 306 305 305 305 305 305 305 304 304 304 306 306 307 309 310 311 313 313 311 310 312 312 311 311 313 315 317 320 321 319 319 318 316 317 320 320 319 320 320 320 322 323 321 321 321 321 321 321 320 320 320 321 320 320 321 320 320 319 319 319 318 318 322 323 319 318 317 313 312 314 314 314 314 314 313 314
302 302 302 302 302 302 302 303 304 304 305 306 306 305 305 305 305 306 305 305 305 305 306 307 307 308 308 310 313 313 312 313 313 312 311 311 311 313 318 321 321 320 319 319 319 318 319 320 319 318 319 320 321 322 321 320 320 321 321 321 320 320 320 320 320 320 320 320 320 319 319 319 317 317 318 317 315 314 312 311 311 312 314 314 314 314 313 313
302 302 301 301 302 301 301 303 305 304 304 305 306 305 305 305 305 305 305 305 306 306 306 307 307 306 306 307 311 312 310 311 314 312 311 312 311 311 314 315 315 319 321 319 319 320 320 321 320 318 319 319 319 321 321 320 320 320 320 320 320 320 319 319 320 320 320 320 320 320 321 320 318 317 315 313 314 314 312 310 311 313 314 313 314 314 314 314
302 302 302 302 302 301 302 303 304 304 304 305 305 305 305 305 305 305 304 304 305 306 306 306 306 305 306 306 308 308 306 306 310 309 308 311 312 310 312 309 308 315 321 319 318 320 321 321 320 318 320 319 318 320 320 319 320 320 320 320 320 319 320 319 319 320 320 320 321 321 321 320 318 318 316 313 313 314 312 312 313 315 315 313 313 314 314 314
302 302 302 302 302 302 302 303 303 304 305 304 304 305 306 306 305 305 305 303 303 304 305 305 305 306 306 306 306 306 304 304 306 305 305 307 307 305 307 306 304 309 316 318 320 320 321 322 319 318 321 320 318 318 319 319 321 321 319 319 319 319 319 319 319 319 319 320 321 321 320 319 319 320 319 316 315 315 313 313 315 316 316 315 314 313 314 314
Wind_Speed
29 30 31 32 34 35 36 39 40 37 37 37 34 33 33 31 31 34 35 36 40 38 35 37 36 32 31 31 30 30 31 30 29 31 34 36 33 31 32 32 28 26 27 25 23 23 23 21 19 17 13 9 7 8 7 5 6 7 4 2 3 3 3 4 4 5 4 4 7 11 11 9 6 9 13 11 12 15 10 9 8 9 9 7 7 6 12 21
29 30 30 31 33 34 36 39 41 38 37 38 34 33 34 32 31 32 34 35 38 39 36 36 37 35 33 31 31 30 30 30 29 34 36 31 31 34 33 30 28 26 28 27 25 25 26 25 21 18 14 9 6 7 7 7 7 5 2 2 4 4 3 2 2 5 4 5 10 11 11 10 10 12 15 9 8 13 9 6 8 9 10 9 9 11 15 22
30 30 30 31 32 33 35 38 41 39 38 38 36 33 34 34 31 31 33 34 36 39 38 37 37 37 35 32 30 28 28 27 28 36 37 30 30 34 32 30 28 26 27 28 27 26 26 25 21 18 14 9 7 8 8 7 7 5 3 3 5 4 3 3 1 3 5 7 12 10 9 10 11 15 14 9 9 10 8 8 9 10 13 12 13 16 18 23
31 30 31 31 31 33 34 37 41 41 39 38 38 34 35 35 32 32 32 33 37 39 40 40 36 35 35 34 30 27 27 21 27 40 38 32 31 32 33 31 29 26 26 28 27 25 23 22 19 17 14 9 8 9 8 9 7 4 5 4 5 5 5 4 0 1 4 8 12 11 7 7 11 14 12 13 9 3 11 16 13 13 16 17 18 20 21 23
32 31 31 31 31 33 34 36 40 42 40 39 39 36 35 36 34 33 32 32 37 40 41 41 38 36 35 34 31 29 26 12 22 44 39 33 33 31 33 32 31 28 26 27 27 26 22 21 20 16 12 7 7 6 7 14 10 4 6 6 5 6 4 6 4 3 6 7 9 10 7 7 10 11 12 16 9 6 15 18 16 14 15 17 19 22 23 24
32 32 31 31 31 33 34 35 38 42 41 40 40 37 35 37 36 33 33 32 34 40 42 41 39 36 35 35 34 32 29 8 8 36 40 34 34 31 32 33 32 29 27 28 28 26 24 24 21 16 11 6 8 6 6 15 13 4 5 7 9 7 3 5 6 5 6 6 8 9 6 8 9 7 11 15 11 9 12 13 15 15 14 15 18 22 24 25
33 33 32 32 32 33 34 34 36 41 42 40 40 39 36 38 38 34 34 32 32 38 42 43 38 37 38 36 35 34 37 20 1 24 41 35 34 32 31 33 34 32 30 30 30 29 27 27 23 19 12 5 8 9 7 14 15 7 4 6 11 13 10 8 8 7 7 6 7 7 6 8 9 6 8 13 13 9 7 6 9 15 17 18 19 21 23 23
33 34 33 32 32 32 35 35 35 39 43 42 40 39 36 37 39 35 33 32 33 35 40 45 39 39 41 37 37 30 37 34 8 15 37 37 35 32 31 33 35 34 33 33 32 31 29 28 27 21 11 6 9 9 9 10 9 8 6 6 8 13 15 13 11 10 9 8 7 7 6 8 9 5 5 11 12 11 10 7 6 13 20 22 22 22 22 23
33 34 33 33 32 32 34 36 35 37 42 43 40 39 38 37 40 36 33 33 33 34 39 43 40 40 42 43 39 23 34 43 17 12 27 37 37 33 33 33 36 37 33 33 33 32 30 28 30 24 13 12 11 8 13 9 5 11 12 9 7 10 14 14 14 12 11 11 9 7 7 9 9 5 6 13 13 11 13 12 10 13 20 24 24 23 23 23
33 34 33 33 32 33 34 35 36 36 41 45 41 39 38 38 40 36 33 34 33 34 38 40 40 42 45 48 35 17 35 46 25 12 17 32 39 33 35 34 37 39 33 33 35 33 32 29 31 26 14 13 12 8 13 11 5 12 16 14 11 11 12 14 16 15 13 11 12 10 7 10 9 5 7 12 12 12 15 14 13 15 19 23 25 25 24 23
33 33 33 33 32 33 34 35 36 36 40 45 43 40 38 38 40 37 33 34 34 34 37 38 39 45 51 50 34 21 35 44 36 22 13 25 39 37 37 35 36 41 37 34 35 35 33 30 30 24 10 8 11 7 9 11 8 11 16 13 10 9 8 11 14 15 12 7 12 11 6 8 6 5 10 13 11 13 17 16 16 18 19 22 25 26 26 25
32 33 33 33 33 33 34 35 35 36 40 45 44 40 38 38 39 37 34 34 36 35 38 38 38 49 52 47 45 40 39 42 42 36 21 20 32 35 35 35 36 40 40 37 36 35 33 30 30 23 11 9 11 5 6 11 8 9 12 6 5 5 4 10 11 13 12 5 9 8 3 6 7 9 15 17 15 14 18 20 20 21 22 23 25 27 27 25
32 33 33 33 33 33 34 35 35 35 39 44 45 41 38 38 38 37 35 34 36 34 39 39 39 50 46 39 51 50 40 40 39 40 35 21 23 33 34 35 36 37 41 42 38 37 35 29 29 24 14 12 10 6 4 8 8 6 7 4 1 2 4 11 10 10 10 5 10 9 3 8 9 15 20 20 19 17 19 23 24 24 24 25 26 29 29 27
32 33 33 33 33 33 34 35 35 35 39 43 46 42 38 37 37 37 35 34 35 34 38 39 39 48 38 26 36 46 41 36 35 39 39 28 25 34 36 36 37 36 41 41 34 33 34 27 26 22 14 12 10 7 3 1 6 4 2 2 3 2 5 8 9 10 7 5 12 10 4 10 6 12 19 19 22 22 22 24 26 27 27 27 28 29 29 28
32 33 33 34 33 34 34 35 35 35 38 42 46 43 38 37 36 37 35 34 35 33 36 37 40 42 26 11 18 38 42 34 34 39 39 35 33 36 38 37 36 36 38 37 31 26 26 25 24 17 11 10 11 8 3 3 1 2 3 3 2 5 4 6 8 14 9 5 11 10 3 9 7 11 17 17 22 24 24 25 26 29 29 29 29 30 30 29
32 33 34 34 34 34 34 35 35 35 38 41 46 43 39 37 34 35 34 34 34 32 34 36 44 42 18 8 13 32 41 38 37 39 37 37 36 36 38 37 34 34 33 32 34 28 22 21 19 13 8 7 7 6 4 1 2 3 5 5 4 6 3 4 5 14 13 5 7 8 4 4 5 7 8 12 20 21 22 24 26 30 30 31 31 30 31 29
32 33 34 35 35 35 35 36 35 36 38 40 44 42 39 36 34 34 33 34 33 32 35 37 45 45 20 9 15 30 42 43 42 40 39 38 36 37 38 36 32 31 30 27 29 29 21 15 12 7 4 3 4 6 6 7 6 4 4 4 4 5 5 3 4 9 12 7 5 8 7 8 7 5 3 3 11 16 21 25 27 30 31 32 32 31 32 31
34 33 34 35 35 35 36 36 36 37 39 39 41 41 38 35 33 34 33 33 32 30 34 37 39 29 14 15 23 33 43 43 45 44 41 40 37 38 40 38 33 30 28 22 21 24 18 10 6 3 1 3 4 7 9 9 8 6 6 5 3 3 6 7 4 5 10 7 7 8 9 13 13 12 13 11 8 12 20 24 27 29 31 32 32 32 32 32
35 33 34 34 34 36 36 36 36 38 40 39 39 39 37 34 32 32 33 33 32 23 15 25 33 12 1 21 33 36 43 45 46 46 44 45 42 40 41 39 38 36 27 16 14 19 17 7 4 5 7 8 9 10 9 6 8 8 6 6 6 4 6 7 5 6 11 8 8 10 10 13 14 13 17 22 17 14 18 21 24 28 30 32 33 33 33 34
34 33 34 34 34 36 36 36 38 40 42 40 41 40 34 30 21 18 28 33 34 25 5 13 37 22 4 19 37 36 40 40 41 46 45 46 47 42 40 39 35 29 20 12 10 16 17 8 7 12 12 12 11 10 7 4 7 8 6 7 8 5 5 5 4 6 10 8 8 13 11 13 16 12 14 22 19 14 17 20 23 27 30 33 34 35 35 36
33 32 33 34 35 36 37 37 39 42 44 44 46 41 32 31 17 12 26 26 34 39 18 9 29 28 7 18 36 39 40 33 33 45 44 45 50 38 32 33 23 13 13 15 12 12 14 10 15 17 12 11 10 9 8 5 5 7 7 7 7 6 6 5 4 5 8 6 6 9 10 13 15 13 14 16 11 13 20 21 24 28 30 33 34 35 35 34
32 32 33 35 35 36 37 38 41 44 47 47 48 39 34 40 31 28 32 16 26 44 35 21 17 17 13 20 34 43 42 31 27 39 43 44 45 32 25 26 16 9 11 14 12 8 10 14 17 14 10 10 9 8 9 7 4 3 4 5 5 4 3 4 3 2 6 6 4 3 7 12 13 12 14 15 12 17 25 27 29 31 31 33 35 36 36 35
32 32 33 35 36 37 37 40 43 46 49 49 50 44 38 42 35 33 30 9 13 33 35 31 22 17 17 18 32 41 34 28 27 36 43 43 39 34 29 20 14 13 12 12 12 11 10 12 13 14 11 11 9 9 9 6 4 3 3 3 5 5 4 4 3 1 4 4 1 3 4 7 8 9 12 18 20 22 28 30 32 34 34 35 37 38 38 38
31 32 34 35 36 37 37 41 44 47 52 51 52 49 42 41 36 31 24 6 2 16 27 33 25 25 25 16 30 39 29 28 32 40 49 47 38 33 28 20 15 13 13 18 18 15 7 5 15 16 11 12 10 10 11 7 6 5 5 5 4 5 6 5 2 0 0 2 1 3 4 6 6 9 11 13 16 20 27 29 30 34 36 37 38 38 39 40
31 32 34 36 36 37 38 40 43 48 52 50 50 48 41 39 35 30 22 4 2 6 17 29 25 28 32 20 23 34 30 27 35 46 52 51 43 29 21 22 17 12 16 19 16 12 7 11 21 16 11 15 12 10 12 10 7 7 9 9 5 4 5 5 4 3 1 4 3 2 3 6 4 8 11 8 6 12 18 20 26 32 33 36 38 39 42 42
32 32 34 36 36 38 39 38 45 49 47 46 47 44 41 39 33 29 20 2 4 6 7 19 19 24 32 23 20 24 20 21 38 53 52 47 46 32 19 17 12 13 19 16 9 5 5 14 19 14 14 16 12 10 12 11 8 7 8 11 8 4 3 5 6 5 3 5 4 2 5 6 5 5 8 6 6 10 10 12 21 28 29 32 37 42 43 43
32 33 34 37 37 40 42 41 47 50 46 46 46 42 42 41 34 29 18 1 5 9 8 14 15 19 29 27 26 16 7 19 34 46 53 46 40 31 18 14 10 13 17 11 7 5 9 16 16 15 15 13 12 11 12 15 10 5 6 13 12 5 4 5 7 6 3 2 3 1 4 4 7 6 5 4 6 9 10 10 15 22 29 33 37 41 43 44
32 33 35 38 38 44 48 45 48 50 47 47 49 44 39 40 37 26 12 4 5 11 8 12 13 20 30 31 33 18 8 33 27 30 57 53 38 27 14 15 15 13 17 14 11 10 15 18 17 18 15 11 12 10 12 16 9 3 7 11 10 6 4 3 3 3 1 1 4 2 3 3 7 6 3 1 4 10 13 13 12 18 28 33 35 37 39 42
32 34 37 39 38 44 46 44 49 51 47 47 48 42 36 42 35 15 4 5 6 7 8 16 15 19 25 23 27 21 16 28 20 28 54 48 40 30 14 21 21 15 18 15 9 7 11 19 21 18 12 9 9 7 14 17 8 4 8 8 6 5 4 3 2 2 3 2 6 6 5 4 6 6 2 0 4 11 14 11 10 19 29 34 36 38 39 40
33 34 38 39 39 46 43 37 46 50 45 46 46 42 41 41 25 7 6 5 4 3 8 19 17 18 23 15 15 19 17 10 14 33 39 30 38 32 16 23 20 13 15 9 3 5 10 19 20 12 10 9 7 7 12 15 9 9 9 8 7 4 4 3 2 3 1 5 6 8 9 4 6 6 6 5 6 9 10 8 9 16 26 34 38 40 41 42
33 34 38 42 44 49 44 36 43 49 46 46 47 46 38 23 8 5 8 1 2 5 7 13 17 20 25 17 11 16 15 7 11 27 20 12 23 21 14 16 9 8 10 5 4 4 9 15 10 10 17 14 9 6 5 8 12 10 5 6 6 3 3 3 3 2 4 6 3 5 8 7 8 5 4 7 8 7 8 9 8 11 20 30 32 32 34 35
34 37 38 43 47 49 47 41 45 50 48 49 52 45 25 7 4 6 4 1 1 7 7 10 15 18 21 20 15 17 15 8 10 19 16 10 10 11 14 14 11 10 8 7 7 4 7 11 8 9 18 20 13 5 3 4 9 6 5 9 6 2 2 2 2 1 5 4 1 3 6 4 10 6 4 11 13 12 12 14 14 14 20 25 24 24 26 26
34 36 37 44 48 49 49 43 47 51 49 54 52 32 11 3 6 8 5 3 2 3 8 11 14 18 21 19 16 17 16 10 11 16 16 15 11 12 16 17 21 17 11 14 12 6 7 10 12 9 10 20 18 10 6 5 10 10 9 12 9 5 5 7 5 1 4 3 1 3 4 4 7 4 9 17 18 17 17 21 23 22 25 26 22 22 22 22
34 38 44 47 46 47 49 47 50 52 52 54 39 16 7 5 5 10 8 3 1 1 5 10 15 18 21 20 15 16 15 10 14 16 14 15 11 12 14 15 20 13 9 14 9 9 10 7 14 13 9 20 20 15 14 8 10 14 8 7 7 5 6 7 5 3 3 1 2 1 1 4 4 3 9 15 17 19 18 21 23 24 27 27 23 20 18 19
37 42 46 43 41 40 41 46 49 52 55 47 21 6 9 7 4 10 10 3 1 2 2 7 16 17 16 17 15 17 14 9 16 16 13 15 12 12 13 13 18 12 9 12 5 8 11 4 10 11 8 20 20 13 12 9 6 8 3 3 4 5 5 3 3 4 4 2 2 3 4 4 4 7 10 11 15 17 19 20 20 23 27 26 24 20 16 17
41 41 38 34 37 37 36 40 43 49 50 32 9 5 8 4 2 6 7 5 4 6 6 7 14 15 13 12 13 19 13 6 15 14 11 16 15 16 16 12 19 19 15 15 8 9 11 6 13 12 6 18 21 11 11 13 8 4 5 7 3 4 6 5 2 2 5 2 3 3 6 5 3 9 11 12 15 14 13 14 15 20 23 23 24 20 17 17
43 38 33 29 32 34 35 36 38 44 36 14 4 7 3 1 2 1 2 4 4 8 10 7 7 9 14 12 10 19 15 6 13 13 10 13 12 16 18 12 18 21 18 16 9 9 11 5 11 16 12 18 24 19 13 12 9 5 8 8 3 3 3 5 3 2 3 4 4 4 9 5 2 6 5 7 15 17 12 8 10 15 17 20 23 22 20 19
41 35 30 28 30 33 34 32 37 40 25 6 4 5 1 1 3 2 3 0 2 4 7 8 3 2 12 14 11 17 17 9 11 11 10 11 9 15 20 13 16 21 20 17 7 4 9 4 1 9 10 9 14 15 10 6 4 5 8 9 6 3 3 4 4 3 3 4 4 4 5 5 7 7 2 4 12 17 14 8 8 10 12 19 25 26 26 22
40 29 22 28 32 32 33 34 40 37 16 4 5 3 2 1 1 3 3 3 1 3 4 5 2 1 5 11 12 17 19 14 13 11 9 8 7 14 21 15 15 21 21 16 8 4 8 6 0 4 6 7 7 8 10 8 1 3 7 7 4 3 6 7 4 2 4 4 5 3 3 4 8 7 6 9 12 13 12 9 8 10 15 21 25 29 30 28
36 18 12 29 32 29 37 39 34 23 8 4 4 2 2 2 0 2 4 2 0 2 3 2 2 3 3 3 5 11 16 16 15 11 8 9 8 13 21 17 14 21 21 14 9 6 4 5 4 1 2 8 8 8 13 15 7 6 10 10 7 3 2 3 2 2 4 3 4 3 5 7 6 5 12 15 16 15 13 10 8 12 19 24 25 27 28 29
27 10 11 32 32 30 38 30 15 7 3 3 3 2 3 3 1 1 5 3 1 0 2 2 3 5 5 3 0 3 10 14 15 11 7 11 11 9 18 22 17 19 19 10 7 8 4 4 8 7 5 10 13 11 13 18 16 12 12 11 10 7 5 5 5 2 3 3 4 4 7 9 5 5 11 14 14 14 14 10 8 12 21 25 26 26 25 25
19 7 15 33 33 33 31 13 2 2 2 3 4 4 5 4 3 2 4 4 2 2 1 2 2 2 3 3 2 2 5 9 12 12 8 13 14 10 21 33 27 23 21 13 12 11 4 4 7 6 5 6 6 4 3 11 14 8 4 7 8 6 7 9 9 5 5 4 3 3 5 9 5 6 9 10 10 10 11 11 11 15 20 21 22 24 24 22
17 14 23 32 31 31 21 5 3 4 2 4 7 7 5 4 2 2 3 5 3 2 3 2 1 2 2 2 3 3 2 3 7 11 10 12 15 14 23 36 33 24 18 12 12 8 4 5 7 4 1 2 3 3 4 1 8 5 2 5 8 9 10 8 6 4 5 6 5 4 7 9 5 4 6 7 9 11 11 13 17 19 17 15 16 19 20 19
26 23 24 28 29 25 11 2 5 6 3 5 7 5 4 4 3 2 2 3 2 2 2 0 1 2 2 2 4 3 2 1 2 6 7 7 13 15 22 36 34 21 17 16 15 13 6 6 10 8 4 1 3 2 1 2 4 6 5 7 11 15 13 6 3 3 4 11 12 7 8 8 3 2 3 4 5 7 11 16 19 18 16 13 13 14 17 17
25 16 15 22 25 15 4 2 6 6 6 7 6 6 5 4 3 3 3 3 2 2 1 0 1 3 4 3 4 3 1 1 0 2 1 2 5 6 15 34 34 21 23 24 20 17 9 7 11 11 11 11 9 13 14 10 9 9 11 14 18 21 20 12 7 6 7 12 12 10 11 6 1 2 4 3 3 2 6 11 13 14 13 12 10 12 15 17
13 7 8 12 12 5 3 6 9 6 6 8 6 5 5 4 2 3 3 3 2 1 1 1 1 4 5 5 5 3 1 1 2 2 1 1 2 2 8 30 35 28 29 26 23 16 3 3 12 13 14 17 13 12 17 19 17 16 19 23 22 24 25 18 10 10 13 10 7 10 14 9 3 4 6 6 4 2 2 4 7 11 11 10 10 11 14 16
6 5 6 5 5 2 2 5 8 6 5 6 5 3 4 5 3 1 2 2 2 1 1 1 1 2 5 8 5 3 3 3 2 4 3 1 2 5 6 20 30 34 28 23 27 18 3 7 17 16 17 15 4 6 9 15 18 19 23 26 23 22 22 17 14 15 15 8 4 11 15 15 13 8 6 9 6 3 5 6 7 9 10 9 11 13 15 18
4 8 9 8 5 2 3 5 7 7 6 4 3 3 5 6 4 2 1 2 2 1 1 1 1 1 5 8 5 4 6 4 3 5 4 3 0 5 6 10 22 32 23 16 23 17 4 11 19 17 19 14 6 11 14 15 16 17 20 23 22 20 19 19 21 20 14 9 12 16 16 17 15 9 10 12 7 6 8 7 7 7 7 9 12 16 19 20
10 13 10 9 5 4 7 9 10 9 7 5 3 3 6 6 4 3 2 2 3 1 2 1 2 2 2 2 2 6 8 5 4 5 3 5 3 2 2 4 14 24 19 13 16 11 5 11 15 14 15 11 9 13 16 17 16 15 18 19 18 19 20 21 23 22 18 12 13 17 15 17 17 12 12 13 12 12 10 6 7 7 7 10 14 18 21 22
14 14 11 9 7 7 9 9 9 8 5 4 4 2 4 6 5 4 3 2 2 1 1 2 4 4 3 2 2 4 4 2 3 5 6 7 5 2 2 1 3 10 13 10 8 5 6 11 12 12 11 8 9 12 15 18 18 17 18 18 17 18 18 19 19 19 16 13 17 21 18 18 18 11 10 14 19 18 12 8 8 8 9 12 16 21 24 25
16 16 21 18 7 3 7 5 5 7 4 2 3 3 4 5 5 5 4 3 2 0 1 3 5 3 3 4 4 3 3 3 5 5 6 6 7 6 4 0 2 4 9 10 6 2 5 7 8 10 10 7 8 13 15 16 17 18 19 18 18 17 17 19 20 20 19 20 23 23 18 18 16 7 9 14 17 16 13 13 16 18 18 18 21 25 27 28
20 20 27 23 8 2 6 4 3 6 3 1 3 4 4 5 6 6 4 2 1 1 2 4 4 2 3 4 4 4 6 6 9 11 11 11 12 12 9 5 1 0 4 8 6 4 6 7 7 10 11 10 12 14 14 14 14 15 15 19 22 22 23 23 23 25 25 21 19 18 18 18 9 7 10 11 11 13 16 20 25 27 27 26 26 26 27 28
Wind_Direction
244 243 242 240 237 236 232 230 231 230 227 226 224 225 225 226 223 218 219 215 212 217 215 212 216 217 215 212 209 209 209 214 221 224 224 214 206 206 204 204 206 205 201 193 188 186 186 189 191 193 196 189 181 175 168 174 165 157 150 169 217 199 199 202 198 201 177 189 200 190 180 161 151 150 145 142 148 146 150 169 164 178 181 183 200 204 191 180
245 243 241 240 239 236 233 229 230 231 228 226 224 223 224 226 224 217 217 215 211 214 215 212 214 217 216 213 212 211 211 215 222 229 224 208 206 208 203 202 204 205 203 196 191 188 187 188 187 191 198 193 182 175 168 174 178 169 120 175 216 195 202 217 211 217 197 186 183 180 183 175 167 157 149 144 147 144 139 152 160 172 173 179 190 186 185 181
247 243 241 240 239 236 233 229 229 231 229 226 224 222 223 225 225 219 215 213 210 211 213 213 214 216 217 215 210 207 211 216 226 228 217 205 210 208 202 201 201 203 204 201 196 193 192 188 184 186 192 192 188 183 174 171 186 201 149 179 236 213 227 284 334 238 237 191 165 166 184 184 175 166 162 162 155 157 168 172 169 177 180 181 181 181 182 183
247 244 241 240 239 237 234 229 228 231 230 227 224 222 222 224 226 221 216 213 210 210 210 212 215 216 217 216 207 203 208 215 228 222 209 205 209 204 202 200 199 201 202 202 198 196 195 188 182 182 187 194 194 189 186 183 186 193 174 192 224 195 216 238 160 228 211 171 162 162 160 170 174 175 177 158 141 208 211 199 201 202 194 186 180 182 184 185
247 245 241 239 239 238 235 230 227 229 230 227 224 223 221 222 225 222 216 214 210 210 209 208 214 218 218 217 207 199 199 210 234 219 206 205 206 201 202 199 198 200 198 197 196 196 195 187 180 178 184 192 183 186 206 196 183 175 210 220 195 165 191 208 163 133 172 165 164 159 148 162 168 179 185 165 158 230 218 215 222 219 209 198 189 187 188 189
246 246 242 240 239 237 236 231 227 227 229 227 224 223 221 221 224 223 217 215 212 210 208 207 211 216 219 218 209 200 195 189 241 215 207 204 203 200 199 199 197 198 198 193 191 193 191 185 180 178 181 185 183 184 208 198 188 198 240 231 208 201 206 193 173 155 171 172 167 165 169 171 164 184 192 186 197 220 220 226 227 225 223 211 198 192 192 194
244 245 243 240 238 237 236 233 227 225 227 228 225 224 223 220 221 223 219 215 215 210 208 209 210 215 218 216 208 200 201 204 216 208 206 202 201 200 197 199 196 195 197 190 188 188 186 185 182 181 175 174 195 196 199 195 194 205 241 229 219 226 230 215 195 185 188 187 181 178 186 184 179 187 193 206 217 214 211 214 217 224 219 206 200 199 200 202
243 244 243 241 238 236 234 234 229 223 226 227 225 225 224 221 221 224 221 217 216 208 207 209 211 217 217 213 203 195 204 208 179 186 201 201 201 199 197 199 197 194 194 193 191 187 185 185 185 181 173 180 192 193 190 185 198 208 224 230 216 224 229 226 210 197 195 194 192 187 200 207 199 202 210 219 220 211 216 217 206 211 209 206 205 206 207 207
242 242 242 241 239 237 234 232 229 223 224 226 224 224 223 221 221 223 222 218 216 209 206 206 211 218 218 214 205 201 212 203 171 146 187 198 199 199 199 197 196 192 191 194 193 189 187 186 187 183 178 187 183 185 185 177 219 213 213 223 210 220 226 220 208 199 195 194 190 190 221 228 214 229 246 233 227 216 220 228 222 208 205 206 209 212 210 210
241 241 240 241 238 237 233 231 229 224 223 224 223 223 222 221 220 222 222 218 216 211 205 203 209 217 216 211 201 210 220 201 180 149 164 191 195 197 201 198 197 193 189 192 192 191 189 189 191 188 184 187 183 186 186 185 216 207 211 222 220 228 227 213 208 203 198 199 200 196 225 236 222 225 243 235 226 218 218 221 219 210 207 208 211 214 214 216
241 241 240 239 237 236 233 230 229 224 221 222 222 222 221 222 220 220 220 217 217 211 206 203 207 214 211 205 198 211 218 203 195 188 160 184 192 195 198 198 199 195 191 192 193 193 191 191 190 186 186 181 177 186 197 205 217 203 205 221 232 236 234 213 207 203 194 202 210 204 241 249 229 219 229 230 220 218 219 217 216 213 212 212 212 214 216 220
240 240 239 238 237 235 232 230 228 223 220 220 221 221 219 221 221 220 219 218 218 213 207 202 206 215 207 200 208 214 214 205 200 199 195 191 192 196 197 198 201 199 196 194 194 194 191 194 191 184 178 163 157 163 216 214 213 202 191 196 250 258 262 222 209 202 194 199 198 187 297 263 227 228 232 233 224 219 221 219 219 218 216 215 214 215 216 221
240 239 238 236 236 234 232 229 227 224 220 218 219 219 217 219 220 219 218 218 219 215 209 203 209 215 203 197 212 214 212 208 201 201 205 202 194 196 196 197 200 201 201 198 195 195 193 194 195 189 172 161 155 145 186 198 188 191 178 157 207 286 279 226 209 198 193 195 177 158 288 254 235 240 237 236 227 218 219 218 218 220 220 216 216 216 218 220
240 240 237 234 234 233 231 228 225 223 219 218 217 217 217 217 218 219 218 219 219 216 209 205 210 214 207 205 210 206 206 205 200 202 203 199 193 193 194 195 196 199 204 201 192 189 193 194 194 188 170 165 165 147 110 152 179 163 146 164 158 188 271 239 197 173 176 205 174 148 258 254 251 249 241 235 227 219 217 217 215 219 221 218 217 218 221 222
240 240 236 233 233 231 229 226 223 221 218 216 215 215 216 216 217 217 219 220 218 214 208 208 213 214 217 238 202 195 201 198 195 200 199 196 192 187 191 194 194 198 205 205 193 179 180 185 183 174 152 149 151 145 99 19 231 167 170 199 181 193 269 286 203 179 179 202 176 155 244 264 274 260 248 234 225 220 217 219 216 216 220 221 220 221 224 226
239 238 236 233 231 230 229 225 222 219 216 215 213 213 215 216 216 215 217 216 212 209 206 210 216 214 220 263 201 187 192 194 195 196 193 195 193 186 186 189 191 194 197 200 197 185 172 170 164 149 129 131 138 133 120 113 249 222 195 192 192 191 226 301 238 201 191 166 183 200 238 273 285 270 259 234 227 223 219 222 220 217 220 221 223 224 225 227
237 236 235 233 230 229 227 224 221 216 213 212 211 211 213 214 211 208 210 211 208 207 210 213 213 212 217 229 198 182 185 192 192 188 189 193 193 186 180 177 178 185 187 187 194 192 184 173 152 139 132 122 132 132 157 198 204 206 194 194 210 191 182 214 268 221 195 169 201 225 242 246 253 271 300 251 230 225 221 226 227 222 221 223 225 226 227 228
237 235 234 232 229 227 226 223 219 214 210 207 207 208 209 211 207 200 200 203 200 203 213 214 207 207 210 190 183 182 184 185 184 183 184 185 189 188 181 172 166 166 166 165 179 183 181 179 151 133 152 146 163 166 186 198 183 183 184 192 222 190 192 205 229 201 180 190 214 211 238 247 253 262 265 268 254 231 227 230 232 227 226 226 227 227 229 232
237 235 233 231 228 224 224 221 215 211 206 202 202 201 199 198 199 198 194 191 190 195 206 199 195 200 303 186 184 185 182 177 178 180 177 176 179 182 178 172 166 159 150 150 174 172 163 157 147 182 198 187 185 184 186 170 163 177 179 192 202 192 218 221 229 200 172 186 222 213 229 244 251 258 256 257 255 247 241 239 236 232 230 231 230 232 234 237
236 234 231 228 226 224 223 218 212 208 202 197 192 188 183 179 183 193 189 190 196 197 167 177 197 213 308 179 181 180 177 175 176 173 173 174 171 168 167 165 163 160 159 161 169 169 164 165 197 203 199 184 179 181 177 142 149 165 176 206 207 198 236 232 237 227 179 177 225 220 227 240 247 253 252 253 252 250 248 245 242 237 234 235 234 236 238 240
235 233 229 226 225 222 220 214 210 205 199 195 186 181 179 176 176 178 176 194 211 206 209 203 198 207 203 165 180 180 170 171 179 172 170 173 167 161 161 160 157 169 177 156 136 150 167 195 214 204 189 170 173 175 180 179 151 162 187 211 216 206 236 234 228 231 183 185 239 225 234 248 248 254 256 254 247 241 242 240 243 241 238 238 238 238 240 242
234 232 227 225 223 220 217 211 207 202 197 194 187 185 188 186 191 193 179 189 219 212 218 225 209 202 178 164 182 183 170 165 178 176 170 168 166 162 163 164 165 175 165 141 128 142 183 217 211 188 167 160 167 174 185 198 173 160 184 204 223 205 242 263 266 254 176 195 254 202 226 251 255 259 258 249 235 241 244 241 244 243 240 239 239 240 241 243
233 230 225 223 221 218 214 207 204 199 193 191 189 191 193 189 192 194 182 162 217 215 219 222 224 217 199 174 172 176 171 163 169 176 172 169 169 169 168 168 167 159 153 158 165 172 198 219 187 160 160 163 164 173 178 200 202 187 171 198 227 182 168 244 267 273 177 190 193 154 238 261 261 268 265 249 238 244 250 248 248 247 243 243 243 244 243 243
232 229 225 221 217 214 210 205 201 196 191 190 192 193 191 189 190 185 173 126 251 218 221 223 226 224 222 202 170 172 174 170 169 174 174 173 173 173 170 165 158 154 168 179 179 184 196 160 150 152 165 170 170 176 177 191 207 207 198 205 223 181 190 220 217 71 248 269 126 85 312 280 236 245 260 250 235 240 247 248 249 247 245 247 247 246 246 245
230 226 224 219 215 211 206 201 197 192 189 188 191 191 186 184 184 179 167 136 301 196 217 221 226 231 226 215 188 176 173 178 177 175 177 176 173 168 168 168 161 164 179 179 178 193 196 144 149 156 167 177 183 186 185 187 193 216 215 204 205 194 206 207 160 101 69 267 263 96 281 279 252 241 254 256 236 240 244 244 247 247 245 245 245 246 246 246
226 224 222 217 213 206 198 194 193 190 185 186 187 185 185 183 175 173 165 109 253 171 174 199 208 227 220 219 210 180 169 187 184 178 178 180 177 168 162 167 168 175 173 170 176 196 188 158 155 160 171 179 190 194 189 180 183 223 204 186 203 202 164 177 165 150 175 237 271 156 202 265 297 254 248 247 241 253 252 247 249 249 247 245 245 247 247 247
223 222 219 214 210 200 190 185 187 185 180 184 186 180 183 180 167 167 169 271 231 161 140 173 183 204 208 214 208 191 152 167 177 181 179 181 181 171 164 167 170 177 161 153 190 178 160 167 162 166 172 178 193 198 187 177 185 223 160 165 194 184 147 185 175 176 207 251 310 33 160 258 278 253 248 229 238 265 262 252 250 246 246 245 245 247 249 249
221 221 214 210 208 197 187 182 182 182 181 184 185 180 179 177 168 159 170 245 173 137 140 169 178 193 200 205 200 210 170 154 162 187 182 181 182 171 171 178 167 165 161 165 191 171 159 170 168 168 175 187 197 190 172 173 189 214 141 151 175 151 137 183 168 172 10 354 268 262 140 223 265 263 296 284 234 259 254 245 245 243 245 247 247 249 250 250
218 216 208 205 202 193 189 185 182 184 185 184 181 176 170 170 167 151 175 229 149 127 147 162 175 183 183 186 191 213 207 166 161 177 178 183 184 177 184 184 167 152 172 184 187 154 156 174 171 166 180 193 188 165 163 177 195 164 128 107 98 87 82 84 117 127 37 303 233 205 175 214 263 248 230 326 232 246 252 245 238 243 247 251 252 251 251 250
215 210 204 200 192 188 190 186 185 187 187 184 180 172 162 160 159 157 208 200 129 144 147 157 165 157 158 165 182 208 223 198 159 164 173 182 182 181 176 173 164 143 171 188 157 134 147 166 169 170 186 176 146 143 167 178 161 115 107 90 72 49 52 58 50 82 68 265 230 188 177 192 270 248 191 206 223 227 245 250 239 241 244 248 252 253 253 253
212 207 202 195 188 188 188 182 185 189 185 182 177 168 161 159 161 190 199 198 86 167 145 156 160 150 161 174 180 195 214 241 169 160 167 177 180 179 154 154 152 135 164 160 137 155 143 154 167 184 180 154 123 142 155 156 142 115 109 117 94 36 30 34 13 53 212 242 246 180 162 169 235 249 189 221 232 219 229 240 240 238 240 246 250 254 255 255
211 207 198 191 190 190 188 183 183 185 182 177 170 162 156 162 208 188 169 37 196 180 159 159 163 159 169 178 181 188 198 222 184 166 166 167 179 181 164 165 158 149 168 165 165 174 153 166 174 174 173 158 147 155 62 105 148 139 139 144 139 153 154 192 199 195 223 243 330 141 130 185 237 256 260 250 247 235 230 232 233 234 244 252 255 259 263 260
208 201 191 189 191 190 190 186 180 181 179 171 165 159 159 201 196 184 161 143 217 192 157 159 166 165 168 177 187 185 188 201 182 174 173 169 177 184 183 182 170 166 171 166 168 164 164 186 174 155 169 168 164 167 171 173 176 179 171 168 174 166 176 199 188 205 238 242 304 116 111 254 264 273 242 243 248 246 240 239 241 242 248 258 266 270 271 264
200 191 186 187 186 185 190 189 181 180 173 165 163 159 182 196 169 180 186 183 252 94 137 162 167 165 171 182 186 176 184 196 178 175 176 174 182 185 186 188 181 176 151 156 169 164 169 195 177 169 170 171 177 188 182 164 175 191 185 169 178 169 185 197 180 201 211 210 289 243 144 213 211 250 239 242 262 268 262 253 250 252 252 257 267 269 263 256
189 179 178 177 169 167 175 178 177 176 167 162 164 171 185 185 161 184 188 178 184 108 104 181 168 165 178 185 183 182 186 183 176 180 180 179 186 183 180 183 184 177 144 158 168 164 182 214 174 173 158 167 182 192 164 135 166 200 166 154 200 176 156 147 173 180 131 123 260 218 233 221 200 278 278 267 273 272 266 261 253 252 252 253 257 255 246 245
184 171 164 161 159 158 158 161 166 168 164 159 163 186 183 176 156 189 172 147 172 153 141 177 171 169 182 183 183 188 189 176 176 182 184 184 188 185 182 181 184 181 168 169 164 167 190 194 170 171 155 175 181 167 155 161 166 180 173 185 194 135 118 113 162 59 83 196 246 192 245 290 316 282 271 260 268 266 254 255 251 247 247 246 243 237 231 232
173 168 160 156 160 164 164 163 163 166 165 157 163 178 173 64 147 177 124 143 170 160 155 172 183 176 177 182 188 183 179 178 180 183 185 186 189 187 184 184 188 189 183 179 177 179 179 166 177 176 170 186 179 162 173 183 158 152 187 180 118 86 87 97 141 23 66 228 263 216 233 260 269 265 263 235 251 258 249 240 254 251 241 239 235 227 225 227
157 159 159 164 167 168 171 174 170 168 168 169 170 163 87 62 156 65 6 189 148 159 177 178 189 201 177 178 184 178 174 176 185 186 181 180 186 183 182 183 189 195 194 182 178 185 164 117 261 191 171 179 171 160 181 208 177 162 174 167 145 169 201 154 171 200 185 227 273 264 249 234 212 230 269 225 233 250 255 238 247 253 232 231 233 230 230 229
147 147 152 168 170 169 174 176 170 163 161 183 184 165 116 110 139 99 24 324 162 157 201 186 121 356 181 175 175 176 179 180 181 185 184 183 183 180 183 183 185 194 194 181 171 180 167 143 260 223 167 146 158 175 186 197 235 86 136 168 179 172 191 188 175 162 171 210 253 288 305 244 220 195 197 233 239 245 251 235 228 235 225 225 230 232 234 234
141 132 145 168 170 171 170 168 163 156 154 180 158 113 120 109 207 112 60 17 222 160 210 225 145 134 148 182 179 175 182 183 178 184 193 186 172 178 188 186 179 188 191 183 173 166 163 160 156 159 135 155 175 197 189 183 171 147 168 187 192 161 137 177 175 117 129 167 220 263 277 256 244 180 185 216 235 237 238 233 224 224 223 226 228 230 234 236
138 114 147 165 168 168 159 152 150 147 140 153 116 101 139 118 113 48 45 45 5 303 200 172 145 141 139 162 207 161 181 184 181 185 192 187 182 181 190 187 177 177 183 185 180 169 163 176 161 154 174 183 187 195 192 186 181 183 192 189 182 168 131 166 211 190 129 177 182 198 260 262 244 194 195 209 223 230 231 228 228 224 222 227 232 231 235 238
134 103 151 160 163 161 151 132 102 128 104 128 112 99 119 106 80 26 20 22 358 322 21 71 101 100 108 130 66 64 164 178 184 187 186 192 197 193 187 186 180 175 179 186 186 173 128 123 147 151 180 190 189 188 182 185 183 180 188 178 169 162 153 178 209 203 175 198 154 138 263 275 250 200 207 218 230 240 238 228 235 237 228 229 236 235 237 241
117 114 148 155 157 157 148 111 101 120 64 111 100 66 73 92 68 52 39 28 9 355 32 48 117 98 90 111 93 108 153 167 191 195 190 192 203 203 187 182 178 176 181 186 182 167 80 103 138 123 108 19 21 42 36 134 176 154 146 171 162 178 188 186 196 181 174 195 185 187 244 263 268 224 220 247 256 256 250 234 235 244 240 234 237 236 236 240
112 116 139 153 157 156 148 112 140 138 125 118 104 76 66 65 56 74 84 68 26 4 44 118 338 72 111 108 104 131 176 187 204 202 196 196 207 208 191 183 180 177 186 190 179 172 168 162 153 142 153 89 49 123 55 345 193 180 188 183 179 187 186 166 138 131 197 211 194 194 238 244 267 275 242 274 275 250 245 238 236 246 251 245 238 228 226 232
117 111 127 147 154 151 117 138 148 137 135 123 116 123 106 65 52 64 73 100 82 14 40 207 30 102 122 114 100 94 133 177 83 183 215 296 225 213 189 186 184 185 197 193 173 168 176 171 165 164 171 173 171 186 190 185 185 192 191 187 189 189 183 182 190 182 210 214 187 193 229 223 97 292 259 293 316 212 229 238 234 237 245 244 236 222 219 222
126 117 126 140 145 124 57 132 139 132 141 132 123 135 125 112 103 60 59 101 104 40 20 31 107 115 124 134 128 110 119 77 52 129 145 294 263 309 194 189 188 192 197 183 160 157 143 175 190 192 190 188 186 192 187 177 177 186 189 190 193 193 190 189 193 200 211 208 183 214 235 235 222 242 258 271 264 210 233 247 217 215 225 228 220 212 209 208
120 127 139 137 134 131 75 127 137 139 148 134 126 131 116 120 133 55 26 90 113 95 12 358 183 166 164 158 143 140 153 122 100 136 131 141 281 315 251 204 194 193 191 169 159 160 122 186 196 202 206 204 164 98 143 168 182 188 189 193 196 193 192 192 202 215 212 200 227 237 234 237 234 226 248 260 248 228 252 249 215 205 212 213 202 196 198 200
110 122 137 138 128 151 149 143 148 141 131 114 100 120 124 124 128 113 57 47 75 75 345 349 3 177 175 166 147 151 152 130 149 162 134 132 256 323 291 227 198 188 180 165 169 170 162 195 195 196 201 200 140 125 149 172 191 197 194 197 196 190 189 197 211 221 211 200 232 233 226 237 238 215 224 240 227 214 234 236 229 220 214 211 202 200 205 206
114 116 128 134 111 99 113 125 135 129 121 113 90 117 139 131 118 109 96 65 59 8 275 202 141 112 138 162 134 159 162 153 175 183 151 135 133 335 279 228 203 187 174 172 182 177 179 197 193 189 193 190 161 157 166 175 187 200 203 200 195 192 195 202 213 223 219 217 241 246 244 250 244 219 212 225 228 234 239 226 223 227 223 221 214 212 217 218
134 136 137 120 101 108 109 114 130 123 105 98 95 109 126 119 118 102 68 78 95 301 284 153 142 120 93 64 90 152 163 134 154 178 167 146 142 194 216 307 241 192 175 179 193 198 205 193 176 173 186 194 181 172 173 178 184 195 202 199 193 192 199 210 218 225 225 226 239 245 246 248 246 222 190 204 219 231 244 238 235 246 244 234 228 226 228 227
144 147 142 127 101 109 117 113 129 121 103 83 104 126 117 114 135 119 66 44 79 160 185 138 139 131 94 84 85 110 129 79 83 123 147 150 151 162 169 40 326 202 180 179 185 216 208 179 152 166 187 196 189 185 180 175 184 197 199 192 189 190 199 209 215 216 213 214 226 235 240 246 249 215 173 192 202 214 232 239 243 250 246 237 233 233 236 237
137 139 141 131 102 80 117 98 91 117 144 184 127 133 133 136 143 124 84 40 50 138 172 148 139 136 100 90 98 136 149 122 98 96 99 107 116 121 130 136 94 347 190 180 179 187 181 164 152 168 186 193 192 190 177 168 188 206 198 187 188 194 202 206 212 216 212 209 215 224 232 239 230 162 185 202 192 200 215 220 229 237 238 238 239 238 241 244